Terminal Aerodrome Forecast
Issued by NWS

Home | Current Version | Previous Version | Text Only | Print | Product List | Glossary On
Versions: 1 2 3 4 5 6 7 8 9 10 11 12 13 14 15 16 17 18 19 20 21 22 23 24 25 26 27 28 29 30 31 32 33 34 35 36 37 38 39 40 41 42 43 44 45 46 47 48
000
FTUS42 KMFL 201902 AAC
TAFMIA
TAF AMD
KMIA 201902Z 2019/2118 13009KT P6SM VCTS SCT030CB BKN250
     FM202200 12009KT P6SM SCT030 BKN150
     FM210200 10006KT P6SM SCT040=

USA.gov is the U.S. government's official web portal to all federal, state and local government web resources and services.